Savannah Hunter, GA

5:28 AM EDT on April 28, 2017 (GMT -0400)
Hunter Army Air Field

Weather History for KSVN - November, 2012

Change the Weather History Date:

Friday, November 23, 2012

  Actual Average Record
Temperature  
Mean Temperature 52 °F -  
Max Temperature 72 °F 67 °F 81 °F (2010)
Min Temperature 33 °F 46 °F 32 °F (2002)
Degree Days  
Heating Degree Days 12    
Growing Degree Days 2 (Base 50)    
Moisture  
Dew Point 39 °F    
Average Humidity 65    
Maximum Humidity 91    
Minimum Humidity 34    
Precipitation  
Precipitation 0.00 in - - ()
Sea Level Pressure  
Sea Level Pressure 30.10 in    
Wind  
Wind Speed 3 mph (WSW)    
Max Wind Speed 12 mph    
Max Gust Speed -    
Visibility 10 miles    
Events      
Averages and records for this station are not official NWS values.
T = Trace of Precipitation, MM = Missing Value Source: NWS Daily Summary

Daily Weather History Graph

Daily Weather History Graph

Search for Another Location

Airport or City:

Trip Planner

Search our weather history database for the weather conditions in past years. The results will help you decide how hot, cold, wet, or windy it might be!

Date:

Astronomy

Nov. 23, 2012 Rise Set
Actual Time 7:00 AM EST 5:21 PM EST
Civil Twilight 6:34 AM EST 5:47 PM EST
Nautical Twilight 6:04 AM EST 6:17 PM EST
Astronomical Twilight 5:35 AM EST 6:46 PM EST
Moon 2:22 PM EST (11/23) 2:32 AM EST (11/23)
Length of Visible Light 11h 13m
Length of Day
10h 20m
Waxing Gibbous, 79% of the Moon is Illuminated
Nov 23
Waxing Gibbous
Nov 28
Full
Dec 6
Last Quarter
Dec 13
New
Dec 20
First Quarter

Hourly Weather History & Observations

Time (EST) Temp. Windchill Dew Point Humidity Pressure Visibility Wind Dir Wind Speed Gust Speed Precip Events Conditions
12:55 AM 40.1 °F - 34.9 °F 82% 30.17 in 10.0 mi Calm Calm - N/A   Clear
1:55 AM 35.8 °F - 33.1 °F 90% 30.17 in 10.0 mi Calm Calm - N/A   Clear
2:55 AM 38.5 °F - 34.5 °F 86% 30.16 in 10.0 mi Calm Calm - N/A   Clear
3:55 AM 35.2 °F - 32.7 °F 91% 30.17 in 10.0 mi Calm Calm - N/A   Clear
4:55 AM 35.6 °F - 33.1 °F 91% 30.17 in 10.0 mi Calm Calm - N/A   Clear
5:55 AM 35.6 °F - 33.1 °F 91% 30.17 in 10.0 mi Calm Calm - N/A   Clear
6:55 AM 33.6 °F - 31.3 °F 91% 30.17 in 10.0 mi Calm Calm - N/A   Clear
7:55 AM 36.7 °F 32.9 °F 34.3 °F 91% 30.19 in 10.0 mi West 4.6 mph - N/A   Clear
8:55 AM 46.8 °F - 40.1 °F 78% 30.20 in 10.0 mi Calm Calm - N/A   Clear
9:55 AM 57.4 °F - 36.5 °F 46% 30.19 in 10.0 mi West 4.6 mph - N/A   Clear
10:55 AM 63.0 °F - 36.7 °F 38% 30.18 in 10.0 mi West 8.1 mph - N/A   Clear
11:55 AM 67.5 °F - 38.7 °F 35% 30.14 in 10.0 mi WSW 6.9 mph - N/A   Clear
12:55 PM 69.6 °F - 40.5 °F 35% 30.10 in 10.0 mi SSW 8.1 mph - N/A   Clear
1:55 PM 71.8 °F - 42.3 °F 34% 30.06 in 10.0 mi WNW 8.1 mph - N/A   Clear
2:55 PM 72.3 °F - 42.4 °F 34% 30.04 in 10.0 mi WNW 11.5 mph - N/A   Clear
3:55 PM 71.2 °F - 43.5 °F 37% 30.03 in 10.0 mi West 8.1 mph - N/A   Partly Cloudy
4:55 PM 67.5 °F - 43.9 °F 43% 30.02 in 10.0 mi WSW 6.9 mph - N/A   Clear
5:55 PM 57.9 °F - 45.1 °F 62% 29.99 in 10.0 mi SSW 4.6 mph - N/A   Clear
6:55 PM 54.9 °F - 44.6 °F 68% 30.01 in 10.0 mi Calm Calm - N/A   Clear
7:55 PM 54.0 °F - 44.2 °F 70% 30.02 in 10.0 mi SSW 4.6 mph - N/A   Clear
8:55 PM 52.5 °F - 43.5 °F 71% 30.01 in 10.0 mi WSW 4.6 mph - N/A   Clear
9:55 PM 57.2 °F - 45.0 °F 64% 30.01 in 10.0 mi WSW 5.8 mph - N/A   Clear
10:55 PM 57.0 °F - 44.8 °F 64% 30.00 in 10.0 mi WSW 6.9 mph - N/A   Clear
11:55 PM 56.1 °F - 44.6 °F 65% 29.98 in 10.0 mi WSW 6.9 mph - N/A   Clear